contact: severine.martini@mio.osupytheas.fr, dominique.lefevre@mio.osupytheas.fr
Project:EMSO Ligure-ouest http://www.emso-fr.org/EMSO-France
Sensor Optode, line 4330 Serial 272 
DOI : "https://doi.org/10.17882/97948" 
Title:EMSO Ligure Ouest : Data BathyDock capteur Optode - deploiement "2023-04-28"
Datetime,Profondeur,Latitude,Longitude,optode_type,serial,O2_concentration,O2_saturation,Temperature,Calibrated_Phase,Temp_Compensated_Phase,phase_blue_light,phase_red_light,Amplitude_blue_light,Amplitude_red_light,thermistor_bridge
time,m,degree_north,degree_east,1,1,umol.l-1,%,degree_C,degree,degree,degree,degree,mV,mV,mV
2023-12-13T00:00:07,2420,42.8014,5.9826,4330,272,186.696,57.167,13.300,36.029,36.609,41.195,4.586,295.6,545.1,291.5
2023-12-13T00:03:08,2420,42.8014,5.9826,4330,272,186.497,57.107,13.301,36.042,36.622,41.208,4.587,295.6,545.1,291.5
2023-12-13T00:06:08,2420,42.8014,5.9826,4330,272,186.545,57.122,13.301,36.039,36.619,41.211,4.592,295.6,545.1,291.5
2023-12-13T00:09:07,2420,42.8014,5.9826,4330,272,186.407,57.080,13.301,36.048,36.628,41.217,4.589,295.7,545.1,291.5
2023-12-13T00:12:07,2420,42.8014,5.9826,4330,272,186.785,57.196,13.301,36.023,36.603,41.195,4.592,295.6,545.1,291.5
2023-12-13T00:15:07,2420,42.8014,5.9826,4330,272,186.610,57.142,13.301,36.034,36.614,41.201,4.586,295.7,545.2,291.5
2023-12-13T00:18:07,2420,42.8014,5.9826,4330,272,186.725,57.177,13.301,36.027,36.607,41.197,4.590,295.7,545.2,291.5
2023-12-13T00:21:07,2420,42.8014,5.9826,4330,272,186.734,57.183,13.304,36.025,36.605,41.194,4.589,295.7,545.2,291.4
2023-12-13T00:24:07,2420,42.8014,5.9826,4330,272,186.576,57.130,13.300,36.037,36.617,41.208,4.591,295.7,545.1,291.6
2023-12-13T00:27:07,2420,42.8014,5.9826,4330,272,186.424,57.084,13.301,36.047,36.627,41.210,4.583,295.7,545.1,291.5
2023-12-13T00:30:08,2420,42.8014,5.9826,4330,272,186.527,57.118,13.302,36.039,36.619,41.208,4.589,295.7,545.1,291.5
2023-12-13T00:33:07,2420,42.8014,5.9826,4330,272,186.581,57.133,13.301,36.036,36.617,41.205,4.588,295.6,545.2,291.5
2023-12-13T00:36:07,2420,42.8014,5.9826,4330,272,186.582,57.134,13.301,36.036,36.616,41.206,4.590,295.6,545.1,291.5
2023-12-13T00:39:07,2420,42.8014,5.9826,4330,272,186.575,57.132,13.302,36.036,36.616,41.204,4.588,295.6,545.2,291.5
2023-12-13T00:42:07,2420,42.8014,5.9826,4330,272,186.527,57.117,13.301,36.040,36.620,41.205,4.586,295.6,545.2,291.5
2023-12-13T00:45:07,2420,42.8014,5.9826,4330,272,186.739,57.183,13.302,36.026,36.606,41.194,4.588,295.7,545.2,291.5
2023-12-13T00:48:08,2420,42.8014,5.9826,4330,272,186.574,57.131,13.301,36.037,36.617,41.204,4.587,295.7,545.1,291.5
2023-12-13T00:51:08,2420,42.8014,5.9826,4330,272,186.552,57.124,13.301,36.039,36.619,41.206,4.588,295.6,545.2,291.5
2023-12-13T00:54:08,2420,42.8014,5.9826,4330,272,186.335,57.056,13.300,36.053,36.632,41.221,4.589,295.6,545.1,291.6
2023-12-13T00:57:08,2420,42.8014,5.9826,4330,272,186.779,57.193,13.301,36.024,36.604,41.190,4.586,295.6,545.2,291.5
2023-12-13T01:00:07,2420,42.8014,5.9826,4330,272,186.523,57.115,13.301,36.041,36.621,41.210,4.589,295.6,545.2,291.5
2023-12-13T01:03:07,2420,42.8014,5.9826,4330,272,186.783,57.194,13.301,36.023,36.603,41.193,4.589,295.7,545.2,291.5
2023-12-13T01:06:07,2420,42.8014,5.9826,4330,272,186.553,57.125,13.301,36.038,36.618,41.206,4.588,295.7,545.2,291.5
2023-12-13T01:09:08,2420,42.8014,5.9826,4330,272,186.789,57.199,13.303,36.022,36.602,41.192,4.590,295.7,545.2,291.5
2023-12-13T01:12:08,2420,42.8014,5.9826,4330,272,186.760,57.187,13.300,36.025,36.606,41.196,4.590,295.7,545.2,291.5
2023-12-13T01:15:08,2420,42.8014,5.9826,4330,272,186.535,57.119,13.301,36.039,36.619,41.206,4.587,295.7,545.2,291.5
2023-12-13T01:18:08,2420,42.8014,5.9826,4330,272,186.468,57.099,13.301,36.043,36.623,41.208,4.584,295.7,545.1,291.5
2023-12-13T01:21:07,2420,42.8014,5.9826,4330,272,186.532,57.118,13.301,36.039,36.619,41.205,4.585,295.7,545.2,291.5
2023-12-13T01:24:07,2420,42.8014,5.9826,4330,272,186.805,57.202,13.301,36.022,36.602,41.186,4.584,295.6,545.2,291.5
2023-12-13T01:27:07,2420,42.8014,5.9826,4330,272,186.807,57.202,13.301,36.022,36.602,41.194,4.592,295.6,545.2,291.5
2023-12-13T01:30:07,2420,42.8014,5.9826,4330,272,186.566,57.130,13.302,36.037,36.617,41.206,4.589,295.6,545.2,291.5
2023-12-13T01:33:07,2420,42.8014,5.9826,4330,272,186.602,57.142,13.303,36.034,36.614,41.195,4.580,295.6,545.1,291.5
2023-12-13T01:36:07,2420,42.8014,5.9826,4330,272,186.603,57.143,13.304,36.033,36.613,41.203,4.589,295.6,545.1,291.4
2023-12-13T01:39:07,2420,42.8014,5.9826,4330,272,186.580,57.135,13.303,36.036,36.616,41.206,4.590,295.7,545.2,291.5
2023-12-13T01:42:07,2420,42.8014,5.9826,4330,272,186.549,57.125,13.302,36.038,36.618,41.198,4.580,295.6,545.2,291.5
2023-12-13T01:45:08,2420,42.8014,5.9826,4330,272,186.600,57.141,13.303,36.034,36.614,41.202,4.588,295.6,545.1,291.5
2023-12-13T01:48:08,2420,42.8014,5.9826,4330,272,186.458,57.096,13.301,36.045,36.625,41.215,4.590,295.6,545.1,291.5
2023-12-13T01:51:08,2420,42.8014,5.9826,4330,272,186.566,57.129,13.301,36.037,36.618,41.207,4.589,295.6,545.1,291.5
2023-12-13T01:54:07,2420,42.8014,5.9826,4330,272,186.616,57.144,13.301,36.034,36.614,41.206,4.591,295.7,545.2,291.5
2023-12-13T01:57:07,2420,42.8014,5.9826,4330,272,186.873,57.223,13.301,36.017,36.597,41.191,4.594,295.6,545.1,291.5
2023-12-13T02:00:07,2420,42.8014,5.9826,4330,272,186.692,57.167,13.301,36.029,36.609,41.199,4.590,295.6,545.2,291.5
2023-12-13T02:03:08,2420,42.8014,5.9826,4330,272,186.561,57.128,13.302,36.037,36.617,41.198,4.581,295.7,545.2,291.5
2023-12-13T02:06:07,2420,42.8014,5.9826,4330,272,186.717,57.174,13.301,36.028,36.608,41.204,4.596,295.7,545.2,291.5
2023-12-13T02:09:07,2420,42.8014,5.9826,4330,272,186.681,57.166,13.303,36.029,36.609,41.197,4.588,295.6,545.1,291.5
2023-12-13T02:12:07,2420,42.8014,5.9826,4330,272,186.784,57.194,13.300,36.024,36.604,41.192,4.589,295.6,545.1,291.6
2023-12-13T02:15:07,2420,42.8014,5.9826,4330,272,186.335,57.058,13.301,36.053,36.632,41.214,4.581,295.7,545.1,291.5
2023-12-13T02:18:07,2420,42.8014,5.9826,4330,272,186.527,57.115,13.300,36.040,36.620,41.205,4.585,295.7,545.2,291.6
2023-12-13T02:21:07,2420,42.8014,5.9826,4330,272,186.553,57.127,13.303,36.037,36.617,41.201,4.584,295.7,545.2,291.5
2023-12-13T02:24:07,2420,42.8014,5.9826,4330,272,186.685,57.166,13.302,36.029,36.609,41.199,4.590,295.6,545.2,291.5
2023-12-13T02:27:08,2420,42.8014,5.9826,4330,272,186.634,57.149,13.301,36.033,36.613,41.201,4.588,295.7,545.2,291.5
2023-12-13T02:30:08,2420,42.8014,5.9826,4330,272,186.735,57.179,13.300,36.027,36.607,41.194,4.587,295.7,545.2,291.5
2023-12-13T02:33:07,2420,42.8014,5.9826,4330,272,186.685,57.165,13.301,36.030,36.610,41.205,4.595,295.7,545.2,291.5
2023-12-13T02:36:07,2420,42.8014,5.9826,4330,272,186.637,57.150,13.300,36.033,36.613,41.200,4.587,295.6,545.1,291.5
2023-12-13T02:39:07,2420,42.8014,5.9826,4330,272,186.442,57.090,13.301,36.046,36.626,41.212,4.586,295.6,545.2,291.5
2023-12-13T02:42:07,2420,42.8014,5.9826,4330,272,186.572,57.129,13.300,36.037,36.617,41.208,4.591,295.7,545.2,291.6
2023-12-13T02:45:07,2420,42.8014,5.9826,4330,272,186.482,57.101,13.300,36.043,36.623,41.209,4.586,295.6,545.1,291.6
2023-12-13T02:48:08,2420,42.8014,5.9826,4330,272,186.903,57.230,13.300,36.016,36.596,41.185,4.589,295.7,545.2,291.6
2023-12-13T02:51:08,2420,42.8014,5.9826,4330,272,186.484,57.102,13.300,36.043,36.623,41.207,4.584,295.7,545.1,291.6
2023-12-13T02:54:08,2420,42.8014,5.9826,4330,272,186.232,57.024,13.300,36.059,36.639,41.228,4.589,295.7,545.2,291.6
2023-12-13T02:57:08,2420,42.8014,5.9826,4330,272,186.456,57.094,13.300,36.045,36.625,41.210,4.586,295.7,545.1,291.5
2023-12-13T03:00:08,2420,42.8014,5.9826,4330,272,186.395,57.075,13.300,36.049,36.629,41.219,4.590,295.7,545.2,291.6
2023-12-13T03:03:07,2420,42.8014,5.9826,4330,272,186.484,57.102,13.300,36.043,36.623,41.207,4.584,295.7,545.1,291.6
2023-12-13T03:06:07,2420,42.8014,5.9826,4330,272,186.632,57.148,13.301,36.033,36.613,41.199,4.585,295.7,545.2,291.5
2023-12-13T03:09:07,2420,42.8014,5.9826,4330,272,186.765,57.188,13.300,36.025,36.605,41.195,4.590,295.7,545.2,291.5
2023-12-13T03:12:08,2420,42.8014,5.9826,4330,272,186.533,57.119,13.301,36.039,36.619,41.209,4.591,295.6,545.1,291.5
2023-12-13T03:15:08,2420,42.8014,5.9826,4330,272,186.583,57.133,13.300,36.037,36.617,41.210,4.593,295.6,545.2,291.6
2023-12-13T03:18:08,2420,42.8014,5.9826,4330,272,186.634,57.148,13.300,36.033,36.613,41.208,4.595,295.7,545.2,291.6
2023-12-13T03:21:07,2420,42.8014,5.9826,4330,272,186.370,57.068,13.300,36.050,36.630,41.213,4.583,295.7,545.2,291.5
2023-12-13T03:24:07,2420,42.8014,5.9826,4330,272,186.630,57.148,13.301,36.033,36.613,41.201,4.588,295.6,545.2,291.5
2023-12-13T03:27:07,2420,42.8014,5.9826,4330,272,186.534,57.119,13.301,36.039,36.619,41.205,4.585,295.7,545.2,291.5
2023-12-13T03:30:07,2420,42.8014,5.9826,4330,272,186.420,57.085,13.302,36.047,36.627,41.216,4.589,295.6,545.1,291.5
2023-12-13T03:33:07,2420,42.8014,5.9826,4330,272,186.577,57.131,13.300,36.037,36.617,41.209,4.592,295.7,545.1,291.6
2023-12-13T03:36:07,2420,42.8014,5.9826,4330,272,186.602,57.139,13.300,36.036,36.616,41.203,4.587,295.7,545.2,291.5
2023-12-13T03:39:07,2420,42.8014,5.9826,4330,272,186.576,57.132,13.301,36.036,36.616,41.207,4.590,295.7,545.2,291.5
2023-12-13T03:42:08,2420,42.8014,5.9826,4330,272,186.593,57.136,13.300,36.036,36.616,41.208,4.592,295.7,545.1,291.6
2023-12-13T03:45:08,2420,42.8014,5.9826,4330,272,186.697,57.167,13.300,36.029,36.609,41.197,4.588,295.7,545.2,291.6
2023-12-13T03:48:08,2420,42.8014,5.9826,4330,272,186.590,57.135,13.300,36.036,36.616,41.208,4.591,295.7,545.2,291.6
2023-12-13T03:51:08,2420,42.8014,5.9826,4330,272,186.467,57.098,13.301,36.044,36.624,41.211,4.587,295.6,545.2,291.5
2023-12-13T03:54:08,2420,42.8014,5.9826,4330,272,186.618,57.145,13.301,36.034,36.614,41.203,4.589,295.6,545.2,291.5
2023-12-13T03:57:07,2420,42.8014,5.9826,4330,272,186.459,57.096,13.301,36.045,36.624,41.212,4.588,295.7,545.2,291.5
2023-12-13T04:00:07,2420,42.8014,5.9826,4330,272,186.472,57.100,13.302,36.043,36.623,41.213,4.590,295.6,545.1,291.5
2023-12-13T04:03:07,2420,42.8014,5.9826,4330,272,186.213,57.022,13.302,36.060,36.640,41.223,4.583,295.7,545.2,291.5
2023-12-13T04:06:07,2420,42.8014,5.9826,4330,272,186.661,57.159,13.302,36.031,36.611,41.194,4.583,295.7,545.1,291.5
2023-12-13T04:09:07,2420,42.8014,5.9826,4330,272,186.683,57.164,13.301,36.029,36.610,41.198,4.588,295.6,545.2,291.5
2023-12-13T04:12:07,2420,42.8014,5.9826,4330,272,186.650,57.154,13.301,36.032,36.612,41.196,4.584,295.7,545.1,291.5
2023-12-13T04:15:07,2420,42.8014,5.9826,4330,272,186.686,57.164,13.300,36.030,36.610,41.199,4.589,295.6,545.1,291.6
2023-12-13T04:18:07,2420,42.8014,5.9826,4330,272,186.643,57.152,13.301,36.032,36.612,41.205,4.592,295.6,545.1,291.5
2023-12-13T04:21:07,2420,42.8014,5.9826,4330,272,186.618,57.145,13.302,36.034,36.614,41.200,4.587,295.6,545.1,291.5
2023-12-13T04:24:07,2420,42.8014,5.9826,4330,272,186.572,57.132,13.302,36.036,36.616,41.206,4.590,295.6,545.1,291.5
2023-12-13T04:27:07,2420,42.8014,5.9826,4330,272,186.616,57.143,13.300,36.034,36.614,41.203,4.589,295.7,545.2,291.5
2023-12-13T04:30:07,2420,42.8014,5.9826,4330,272,186.688,57.165,13.301,36.030,36.610,41.195,4.585,295.7,545.2,291.5
2023-12-13T04:33:07,2420,42.8014,5.9826,4330,272,186.589,57.136,13.301,36.036,36.616,41.205,4.589,295.6,545.1,291.5
2023-12-13T04:36:07,2420,42.8014,5.9826,4330,272,186.746,57.183,13.301,36.026,36.606,41.195,4.589,295.6,545.1,291.5
2023-12-13T04:39:08,2420,42.8014,5.9826,4330,272,186.456,57.095,13.301,36.044,36.624,41.212,4.587,295.7,545.1,291.5
2023-12-13T04:42:08,2420,42.8014,5.9826,4330,272,186.634,57.150,13.301,36.033,36.613,41.202,4.589,295.7,545.1,291.5
2023-12-13T04:45:08,2420,42.8014,5.9826,4330,272,186.414,57.083,13.302,36.047,36.627,41.211,4.584,295.7,545.1,291.5
2023-12-13T04:48:08,2420,42.8014,5.9826,4330,272,186.418,57.084,13.302,36.047,36.627,41.212,4.585,295.6,545.1,291.5
2023-12-13T04:51:08,2420,42.8014,5.9826,4330,272,186.697,57.168,13.301,36.029,36.609,41.199,4.590,295.6,545.2,291.5
2023-12-13T04:54:07,2420,42.8014,5.9826,4330,272,186.740,57.184,13.302,36.026,36.606,41.197,4.591,295.7,545.2,291.5
2023-12-13T04:57:07,2420,42.8014,5.9826,4330,272,186.621,57.145,13.301,36.033,36.613,41.200,4.587,295.6,545.2,291.5
2023-12-13T05:00:07,2420,42.8014,5.9826,4330,272,186.499,57.109,13.302,36.041,36.621,41.210,4.589,295.6,545.1,291.5
2023-12-13T05:03:07,2420,42.8014,5.9826,4330,272,186.681,57.164,13.301,36.030,36.610,41.197,4.586,295.6,545.1,291.5
2023-12-13T05:06:07,2420,42.8014,5.9826,4330,272,186.731,57.180,13.301,36.026,36.606,41.194,4.587,295.7,545.2,291.5
2023-12-13T05:09:07,2420,42.8014,5.9826,4330,272,186.736,57.182,13.302,36.025,36.606,41.191,4.585,295.7,545.2,291.5
2023-12-13T05:12:07,2420,42.8014,5.9826,4330,272,186.644,57.154,13.302,36.032,36.612,41.199,4.587,295.6,545.1,291.5
2023-12-13T05:15:07,2420,42.8014,5.9826,4330,272,186.551,57.125,13.302,36.038,36.618,41.202,4.584,295.6,545.1,291.5
2023-12-13T05:18:08,2420,42.8014,5.9826,4330,272,186.635,57.154,13.305,36.031,36.611,41.197,4.585,295.6,545.1,291.4
2023-12-13T05:21:07,2420,42.8014,5.9826,4330,272,186.753,57.186,13.301,36.025,36.605,41.189,4.584,295.6,545.1,291.5
2023-12-13T05:24:07,2420,42.8014,5.9826,4330,272,186.528,57.118,13.302,36.039,36.619,41.204,4.584,295.6,545.1,291.5
2023-12-13T05:27:07,2420,42.8014,5.9826,4330,272,186.575,57.133,13.302,36.037,36.617,41.207,4.590,295.7,545.2,291.5
2023-12-13T05:30:07,2420,42.8014,5.9826,4330,272,186.386,57.074,13.302,36.048,36.628,41.218,4.590,295.7,545.1,291.5
2023-12-13T05:33:07,2420,42.8014,5.9826,4330,272,186.718,57.175,13.301,36.027,36.607,41.197,4.589,295.6,545.1,291.5
2023-12-13T05:36:07,2420,42.8014,5.9826,4330,272,186.733,57.181,13.302,36.026,36.606,41.192,4.586,295.6,545.1,291.5
2023-12-13T05:39:07,2420,42.8014,5.9826,4330,272,186.586,57.137,13.302,36.036,36.616,41.201,4.585,295.7,545.2,291.5
2023-12-13T05:42:08,2420,42.8014,5.9826,4330,272,186.655,57.156,13.301,36.031,36.611,41.205,4.594,295.6,545.2,291.5
2023-12-13T05:45:08,2420,42.8014,5.9826,4330,272,186.865,57.221,13.302,36.018,36.598,41.190,4.592,295.6,545.2,291.5
2023-12-13T05:48:08,2420,42.8014,5.9826,4330,272,186.466,57.098,13.301,36.043,36.623,41.213,4.590,295.8,545.1,291.5
2023-12-13T05:51:08,2420,42.8014,5.9826,4330,272,186.525,57.118,13.302,36.039,36.619,41.210,4.591,295.7,545.1,291.5
2023-12-13T05:54:08,2420,42.8014,5.9826,4330,272,186.728,57.180,13.302,36.026,36.606,41.195,4.589,295.7,545.2,291.5
2023-12-13T05:57:07,2420,42.8014,5.9826,4330,272,186.501,57.109,13.301,36.041,36.621,41.206,4.585,295.7,545.1,291.5
2023-12-13T06:00:07,2420,42.8014,5.9826,4330,272,186.284,57.045,13.303,36.055,36.634,41.222,4.588,295.6,545.1,291.5
2023-12-13T06:03:08,2420,42.8014,5.9826,4330,272,186.601,57.142,13.303,36.034,36.614,41.201,4.587,295.7,545.2,291.5
2023-12-13T06:06:07,2420,42.8014,5.9826,4330,272,186.438,57.094,13.305,36.044,36.624,41.205,4.581,295.7,545.1,291.4
2023-12-13T06:09:07,2420,42.8014,5.9826,4330,272,186.429,57.091,13.304,36.045,36.625,41.207,4.582,295.7,545.1,291.4
2023-12-13T06:12:08,2420,42.8014,5.9826,4330,272,186.498,57.111,13.304,36.041,36.621,41.209,4.588,295.7,545.2,291.4
2023-12-13T06:15:08,2420,42.8014,5.9826,4330,272,186.527,57.120,13.304,36.038,36.618,41.203,4.585,295.7,545.1,291.4
2023-12-13T06:18:08,2420,42.8014,5.9826,4330,272,186.637,57.154,13.304,36.031,36.611,41.201,4.590,295.7,545.1,291.4
2023-12-13T06:21:08,2420,42.8014,5.9826,4330,272,186.780,57.196,13.303,36.022,36.602,41.193,4.591,295.7,545.1,291.5
2023-12-13T06:24:08,2420,42.8014,5.9826,4330,272,186.570,57.133,13.304,36.036,36.616,41.202,4.586,295.8,545.1,291.4
2023-12-13T06:27:07,2420,42.8014,5.9826,4330,272,186.692,57.172,13.305,36.027,36.607,41.197,4.590,295.7,545.1,291.4
2023-12-13T06:30:07,2420,42.8014,5.9826,4330,272,186.475,57.107,13.306,36.041,36.621,41.209,4.589,295.7,545.1,291.4
2023-12-13T06:33:08,2420,42.8014,5.9826,4330,272,186.350,57.071,13.308,36.048,36.628,41.217,4.589,295.7,545.1,291.3
2023-12-13T06:36:07,2420,42.8014,5.9826,4330,272,186.364,57.073,13.306,36.048,36.628,41.212,4.584,295.7,545.1,291.4
2023-12-13T06:39:07,2420,42.8014,5.9826,4330,272,186.276,57.051,13.310,36.052,36.632,41.220,4.588,295.7,545.1,291.2
2023-12-13T06:42:07,2420,42.8014,5.9826,4330,272,186.501,57.115,13.306,36.039,36.619,41.206,4.587,295.6,545.1,291.4
2023-12-13T06:45:07,2420,42.8014,5.9826,4330,272,186.499,57.114,13.305,36.039,36.619,41.212,4.592,295.7,545.1,291.4
2023-12-13T06:48:08,2420,42.8014,5.9826,4330,272,186.319,57.061,13.307,36.050,36.630,41.220,4.590,295.7,545.1,291.3
2023-12-13T06:51:08,2420,42.8014,5.9826,4330,272,186.529,57.122,13.305,36.038,36.618,41.207,4.589,295.7,545.1,291.4
2023-12-13T06:54:08,2420,42.8014,5.9826,4330,272,186.640,57.155,13.304,36.031,36.611,41.202,4.592,295.7,545.2,291.4
2023-12-13T06:57:08,2420,42.8014,5.9826,4330,272,186.520,57.120,13.305,36.038,36.618,41.205,4.587,295.7,545.1,291.4
2023-12-13T07:00:07,2420,42.8014,5.9826,4330,272,186.520,57.121,13.306,36.038,36.618,41.207,4.589,295.7,545.1,291.4
2023-12-13T07:03:07,2420,42.8014,5.9826,4330,272,186.305,57.054,13.305,36.052,36.632,41.219,4.588,295.8,545.1,291.4
2023-12-13T07:06:07,2420,42.8014,5.9826,4330,272,186.372,57.073,13.304,36.049,36.629,41.210,4.582,295.7,545.1,291.4
2023-12-13T07:09:07,2420,42.8014,5.9826,4330,272,186.248,57.037,13.305,36.056,36.636,41.218,4.582,295.7,545.1,291.4
2023-12-13T07:12:07,2420,42.8014,5.9826,4330,272,186.335,57.065,13.307,36.049,36.629,41.217,4.588,295.7,545.1,291.3
2023-12-13T07:15:08,2420,42.8014,5.9826,4330,272,186.600,57.144,13.305,36.034,36.614,41.205,4.591,295.7,545.1,291.4
2023-12-13T07:18:08,2420,42.8014,5.9826,4330,272,186.386,57.083,13.308,36.046,36.626,41.212,4.587,295.7,545.1,291.3
2023-12-13T07:21:08,2420,42.8014,5.9826,4330,272,186.565,57.139,13.310,36.033,36.613,41.202,4.589,295.7,545.1,291.2
2023-12-13T07:24:08,2420,42.8014,5.9826,4330,272,186.155,57.015,13.310,36.060,36.639,41.225,4.585,295.7,545.1,291.2
2023-12-13T07:27:07,2420,42.8014,5.9826,4330,272,186.382,57.083,13.310,36.045,36.625,41.211,4.586,295.7,545.1,291.2
2023-12-13T07:30:07,2420,42.8014,5.9826,4330,272,186.483,57.109,13.305,36.041,36.621,41.210,4.589,295.8,545.1,291.4
2023-12-13T07:33:07,2420,42.8014,5.9826,4330,272,186.503,57.115,13.306,36.039,36.619,41.207,4.588,295.7,545.1,291.4
2023-12-13T07:36:07,2420,42.8014,5.9826,4330,272,186.489,57.112,13.306,36.040,36.620,41.212,4.592,295.7,545.1,291.3
2023-12-13T07:39:07,2420,42.8014,5.9826,4330,272,186.661,57.163,13.305,36.029,36.609,41.200,4.591,295.7,545.1,291.4
2023-12-13T07:42:08,2420,42.8014,5.9826,4330,272,186.280,57.045,13.304,36.054,36.634,41.224,4.590,295.7,545.2,291.4
2023-12-13T07:45:08,2420,42.8014,5.9826,4330,272,186.360,57.072,13.306,36.049,36.629,41.217,4.588,295.7,545.1,291.4
2023-12-13T07:48:08,2420,42.8014,5.9826,4330,272,186.364,57.075,13.307,36.047,36.627,41.221,4.593,295.7,545.1,291.3
2023-12-13T07:51:07,2420,42.8014,5.9826,4330,272,186.441,57.097,13.306,36.043,36.623,41.210,4.587,295.7,545.2,291.3
2023-12-13T07:54:07,2420,42.8014,5.9826,4330,272,186.532,57.127,13.308,36.036,36.616,41.202,4.586,295.7,545.1,291.3
2023-12-13T07:57:07,2420,42.8014,5.9826,4330,272,186.436,57.095,13.306,36.043,36.623,41.209,4.586,295.7,545.1,291.4
2023-12-13T08:00:07,2420,42.8014,5.9826,4330,272,186.395,57.083,13.307,36.046,36.626,41.212,4.587,295.7,545.1,291.3
2023-12-13T08:03:07,2420,42.8014,5.9826,4330,272,186.424,57.092,13.307,36.044,36.624,41.212,4.588,295.7,545.1,291.3
2023-12-13T08:06:07,2420,42.8014,5.9826,4330,272,186.580,57.141,13.307,36.033,36.613,41.200,4.587,295.7,545.1,291.3
2023-12-13T08:09:07,2420,42.8014,5.9826,4330,272,186.472,57.106,13.306,36.041,36.621,41.209,4.588,295.7,545.2,291.4
2023-12-13T08:12:08,2420,42.8014,5.9826,4330,272,186.671,57.170,13.308,36.027,36.607,41.198,4.591,295.7,545.1,291.3
2023-12-13T08:15:08,2420,42.8014,5.9826,4330,272,186.485,57.111,13.307,36.040,36.620,41.208,4.588,295.7,545.1,291.3
2023-12-13T08:18:08,2420,42.8014,5.9826,4330,272,186.322,57.066,13.310,36.049,36.629,41.213,4.584,295.6,545.1,291.2
2023-12-13T08:21:08,2420,42.8014,5.9826,4330,272,186.280,57.057,13.314,36.050,36.630,41.222,4.593,295.7,545.1,291.1
2023-12-13T08:24:07,2420,42.8014,5.9826,4330,272,186.575,57.144,13.311,36.032,36.612,41.201,4.589,295.7,545.1,291.2
2023-12-13T08:27:07,2420,42.8014,5.9826,4330,272,186.430,57.099,13.310,36.042,36.622,41.212,4.590,295.6,545.1,291.2
2023-12-13T08:30:07,2420,42.8014,5.9826,4330,272,186.626,57.157,13.309,36.029,36.609,41.195,4.586,295.7,545.1,291.2
2023-12-13T08:33:07,2420,42.8014,5.9826,4330,272,186.459,57.109,13.312,36.039,36.619,41.209,4.590,295.7,545.1,291.2
2023-12-13T08:36:07,2420,42.8014,5.9826,4330,272,186.359,57.081,13.313,36.045,36.625,41.208,4.583,295.7,545.0,291.1
2023-12-13T08:39:07,2420,42.8014,5.9826,4330,272,186.379,57.085,13.312,36.044,36.624,41.209,4.585,295.7,545.0,291.2
2023-12-13T08:42:08,2420,42.8014,5.9826,4330,272,186.387,57.088,13.312,36.044,36.624,41.211,4.587,295.7,545.1,291.2
2023-12-13T08:45:08,2420,42.8014,5.9826,4330,272,186.504,57.123,13.311,36.036,36.616,41.205,4.589,295.7,545.1,291.2
2023-12-13T08:48:08,2420,42.8014,5.9826,4330,272,186.525,57.128,13.311,36.035,36.615,41.204,4.588,295.7,545.1,291.2
2023-12-13T08:51:08,2420,42.8014,5.9826,4330,272,186.488,57.116,13.310,36.038,36.618,41.205,4.587,295.7,545.1,291.2
2023-12-13T08:54:08,2420,42.8014,5.9826,4330,272,186.303,57.061,13.311,36.050,36.630,41.217,4.587,295.7,545.1,291.2
2023-12-13T08:57:07,2420,42.8014,5.9826,4330,272,186.433,57.103,13.313,36.041,36.621,41.207,4.587,295.6,545.1,291.1
2023-12-13T09:00:07,2420,42.8014,5.9826,4330,272,186.411,57.096,13.313,36.041,36.621,41.208,4.587,295.7,545.1,291.1
2023-12-13T09:03:08,2420,42.8014,5.9826,4330,272,186.608,57.160,13.316,36.027,36.607,41.196,4.589,295.6,545.1,291.0
2023-12-13T09:06:07,2420,42.8014,5.9826,4330,272,186.572,57.140,13.308,36.034,36.614,41.205,4.591,295.6,545.0,291.3
2023-12-13T09:09:07,2420,42.8014,5.9826,4330,272,186.399,57.092,13.313,36.042,36.622,41.211,4.588,295.7,545.1,291.1
2023-12-13T09:12:07,2420,42.8014,5.9826,4330,272,186.285,57.053,13.309,36.052,36.632,41.217,4.585,295.7,545.1,291.3
2023-12-13T09:15:07,2420,42.8014,5.9826,4330,272,186.167,57.020,13.312,36.058,36.638,41.228,4.590,295.7,545.1,291.2
2023-12-13T09:18:08,2420,42.8014,5.9826,4330,272,186.444,57.106,13.312,36.040,36.620,41.212,4.592,295.7,545.1,291.1
2023-12-13T09:21:08,2420,42.8014,5.9826,4330,272,186.364,57.081,13.312,36.045,36.625,41.213,4.588,295.7,545.1,291.2
2023-12-13T09:24:08,2420,42.8014,5.9826,4330,272,186.651,57.168,13.312,36.026,36.607,41.194,4.587,295.7,545.1,291.2
2023-12-13T09:27:08,2420,42.8014,5.9826,4330,272,186.496,57.118,13.309,36.037,36.617,41.202,4.585,295.7,545.1,291.2
2023-12-13T09:30:08,2420,42.8014,5.9826,4330,272,186.702,57.181,13.310,36.024,36.604,41.196,4.591,295.7,545.1,291.2
2023-12-13T09:33:07,2420,42.8014,5.9826,4330,272,186.538,57.129,13.308,36.035,36.616,41.209,4.593,295.7,545.1,291.3
2023-12-13T09:36:07,2420,42.8014,5.9826,4330,272,186.460,57.106,13.309,36.040,36.620,41.216,4.595,295.8,545.1,291.3
2023-12-13T09:39:07,2420,42.8014,5.9826,4330,272,186.261,57.051,13.313,36.051,36.631,41.212,4.581,295.7,545.1,291.1
2023-12-13T09:42:07,2420,42.8014,5.9826,4330,272,186.446,57.105,13.311,36.040,36.620,41.205,4.585,295.6,545.1,291.2
2023-12-13T09:45:07,2420,42.8014,5.9826,4330,272,186.727,57.192,13.312,36.021,36.601,41.188,4.586,295.6,545.0,291.2
2023-12-13T09:48:08,2420,42.8014,5.9826,4330,272,186.311,57.069,13.316,36.047,36.627,41.213,4.586,295.7,545.0,291.0
2023-12-13T09:51:08,2420,42.8014,5.9826,4330,272,186.410,57.095,13.312,36.042,36.622,41.212,4.590,295.6,545.0,291.2
2023-12-13T09:54:08,2420,42.8014,5.9826,4330,272,186.341,57.072,13.311,36.047,36.627,41.216,4.589,295.7,545.1,291.2
2023-12-13T09:57:07,2420,42.8014,5.9826,4330,272,186.277,57.058,13.315,36.050,36.629,41.216,4.586,295.6,545.0,291.1
2023-12-13T10:00:07,2420,42.8014,5.9826,4330,272,186.194,57.030,13.313,36.055,36.635,41.224,4.588,295.7,545.0,291.1